NORRKOPING current weather conditions

sailwx.info

Wind from 360 at 6 knots

Air temperature 1.0° C
Visibility: greater than 5.4 NM
Dewpoint -0.0° C
Present weather: Light snow.

Last reported at 2018-Dec-10 20:50 UTC.
Time now 2018-Dec-10 22:03 UTC

Location: N 58°35' E 016°15'.
View on Google Maps.

See reports from other nearby stations

  
Tides and Currents Weather Stations Pressure Air Temp Water Temp Dewpoint Dewpoint Depression Visibility Wind Speed Wind Dir Waves Ship Positions
date/time (UTC)wind fromknots sea level pressurealtimeterstation pressurevisibilityair tempwater tempwave heightnotes
2018-Dec-10 20:50 360 6 5.4 1.0 Light snow.
2018-Dec-10 20:20 360 6 5.4-0.0
2018-Dec-10 19:50 360 6 5.4-0.0
2018-Dec-10 19:20 010 4 5.4-0.0
2018-Dec-10 18:50 030 6 5.4-0.0
2018-Dec-10 18:20 010 4 5.4-0.0
2018-Dec-10 17:50 360 5 5.4-0.0
2018-Dec-10 17:20 350 4 5.4-0.0
2018-Dec-10 16:50 010 4 5.4-0.0
2018-Dec-10 16:20 020 6 5.4-0.0
2018-Dec-10 15:50 340 5 5.4 1.0
2018-Dec-10 15:20 350 6 5.4 1.0 Light drizzle.
2018-Dec-10 14:50 320 5 5.4 1.0 Light snow.
2018-Dec-10 14:20 340 4 5.4 1.0
2018-Dec-10 13:50 330 4 5.4 1.0
2018-Dec-10 13:20 310 5 5.4 1.0
2018-Dec-10 12:50 310 6 5.4 1.0
2018-Dec-10 12:20 300 7 5.4 2.0
2018-Dec-10 11:50 290 7 5.4 2.0
2018-Dec-10 11:20 280 7 5.4 2.0
2018-Dec-10 10:50 280 6 5.4 2.0
2018-Dec-10 10:20 290 7 5.4 1.0
2018-Dec-10 09:50 290 7 5.4 1.0
2018-Dec-10 09:20 280 7 5.4 1.0
2018-Dec-10 08:50 280 9 5.4 1.0
2018-Dec-10 08:20 280 9 5.4 1.0
2018-Dec-10 07:50 280 8 5.4 1.0
2018-Dec-10 07:20 270 9 5.4 1.0
2018-Dec-10 06:50 270 8 5.4 1.0
2018-Dec-10 06:20 270 7 5.4-0.0
2018-Dec-10 05:50 280 8 5.4-0.0
2018-Dec-10 05:20 280 7 5.4-0.0
2018-Dec-10 04:50 280 8 5.4-0.0
2018-Dec-10 04:20 280 9 5.4-0.0
2018-Dec-10 03:50 290 8 5.4-0.0
2018-Dec-10 03:20 280 7 5.4-1.0
2018-Dec-10 02:50 290 8 5.4-0.0
2018-Dec-10 02:20 290 9 5.4-0.0
2018-Dec-10 01:50 280 8 5.4-0.0
2018-Dec-10 01:20 280 7 5.4-0.0
2018-Dec-10 00:50 290 7 5.4-0.0
2018-Dec-10 00:20 280 8 5.4-0.0
2018-Dec-09 23:50 280 8 5.4-1.0
2018-Dec-09 23:20 270 7 5.4-1.0
2018-Dec-09 22:50 270 8 5.4-0.0
2018-Dec-09 22:20 290 8 5.4-0.0
2018-Dec-09 21:50 290 12 5.4 1.0
2018-Dec-09 21:20 290 8 5.4 1.0
2018-Dec-09 20:50 280 12 5.4 2.0
2018-Dec-09 20:20 290 11 5.4 2.0
2018-Dec-09 19:50 270 13 5.4 2.0
2018-Dec-09 19:20 280 12 5.4 2.0
2018-Dec-09 18:50 280 11 5.4 3.0
2018-Dec-09 18:20 280 13 5.4 3.0
2018-Dec-09 17:50 270 13 5.4 4.0
2018-Dec-09 17:20 260 9 5.4 4.0
2018-Dec-09 16:50 230 5 5.4 4.0
2018-Dec-09 16:20 240 5 5.4 4.0
2018-Dec-09 15:50 220 6 5.4 4.0
2018-Dec-09 15:20 220 5 5.4 5.0
2018-Dec-09 14:50 230 6 5.4 5.0
2018-Dec-09 14:20 240 7 5.4 5.0
2018-Dec-09 13:50 240 6 5.4 5.0
2018-Dec-09 13:20 250 6 5.4 5.0
2018-Dec-09 12:50 230 9 4.3 5.0 Mist.
2018-Dec-09 12:20 240 7 5.4 6.0
2018-Dec-09 11:50 240 7 5.4 6.0
2018-Dec-09 11:20 230 6 2.7 5.0 Mist.
2018-Dec-09 10:50 220 8 5.4 6.0
2018-Dec-09 10:20 220 7 5.4 6.0
2018-Dec-09 09:50 220 7 5.4 6.0 Light drizzle.
2018-Dec-09 09:20 220 8 3.2 6.0 Mist.
2018-Dec-09 08:50 220 7 2.7 6.0 Mist.
2018-Dec-09 08:20 230 7 5.4 6.0
2018-Dec-09 07:50 240 12 5.4 6.0
2018-Dec-09 07:20 230 11 4.9 5.0
2018-Dec-09 06:50 220 9 5.4 5.0 Drizzle.
2018-Dec-09 06:20 210 9 2.7 5.0 Drizzle.
2018-Dec-09 05:50 210 9 2.4 5.0 Light rain.
2018-Dec-09 05:20 200 7 5.4 6.0 Light rain.
2018-Dec-09 04:50 180 8 5.4 6.0 Light drizzle.
2018-Dec-09 04:20 170 8 5.4 6.0 Drizzle.
2018-Dec-09 03:50 160 9 5.4 6.0 Light rain.
2018-Dec-09 03:20 160 9 5.4 6.0 Light drizzle.
2018-Dec-09 02:50 150 7 5.4 6.0
2018-Dec-09 02:20 160 8 5.4 6.0
2018-Dec-09 01:50 150 7 5.4 6.0
2018-Dec-09 01:20 150 6 5.4 6.0 Light rain.
2018-Dec-09 00:50 150 6 5.4 5.0 Light rain.
2018-Dec-09 00:20 160 6 5.4 5.0
2018-Dec-08 23:50 150 6 5.4 5.0
2018-Dec-08 23:20 140 5 5.4 5.0
2018-Dec-08 22:50 150 6 5.4 5.0
2018-Dec-08 22:20 150 6 5.4 5.0